Simultaneous Nadir Overpasses (SNOs) Predictions

Prediction of SNOs between METOP-B and TERRA Satellite Orbit:

Table of predicted SNOs for the next 14.0 days since TLE Epoch: 5/1/2021
Index Date (METOP-B) Time (METOP-B) Lat,Lon (METOP-B) SZA (METOP-B ) Date (TERRA) Time (TERRA) Lat,Lon (TERRA) SZA (TERRA ) Distance(km) Time Diff (sec)
1 05/02/2021 17:46:08 -81.26, 139.13 111.55 05/02/2021 17:46:31 -81.26, 138.97 111.55 2.69 23
2 05/02/2021 18:36:48 81.27, -53.10 68.50 05/02/2021 18:35:57 81.27, -53.27 68.46 2.97 51
3 05/05/2021 13:20:34 -81.26,-154.80 112.39 05/05/2021 13:20:44 -81.26,-154.71 112.37 1.61 10
4 05/05/2021 14:11:14 81.27, 12.93 67.66 05/05/2021 14:10:10 81.26, 13.02 67.64 1.58 64
5 05/08/2021 08:04:18 81.25, 104.02 66.83 05/08/2021 08:05:29 81.25, 103.98 66.86 0.72 71
6 05/08/2021 08:54:57 -81.27, -87.97 113.10 05/08/2021 08:54:55 -81.27, -88.06 113.11 1.44 2
7 05/11/2021 03:38:43 81.25, 170.40 66.10 05/11/2021 03:39:41 81.26, 170.56 66.15 2.81 58
8 05/11/2021 04:29:23 -81.26, -21.94 113.88 05/11/2021 04:29:08 -81.26, -21.83 113.87 1.97 15
9 05/13/2021 23:13:07 81.26,-122.85 65.45 05/13/2021 23:13:53 81.26,-122.91 65.46 1.06 46



Historial Predications of SNOs between METOP-B and TERRA
